| time (UTC) | temp F | wind direction | speed knots | gust knots | rain 1hr in | rain 24hr in | rain mn in | humidity % | barometer mb |
| 20260904103013 | 61 | 186 | 6.1 | 13.9 | 0.00 | 0.28 | 0.01 | 79 | 999.2 |
| 20260904101512 | 61 | 215 | 7.0 | 12.2 | 0.00 | 0.28 | 0.01 | 78 | 999.3 |
| 20260904100011 | 61 | 219 | 6.1 | 12.2 | 0.00 | 0.28 | 0.01 | 79 | 999.3 |
| 20260904094509 | 60 | 221 | 5.2 | 17.4 | 0.00 | 0.28 | 0.01 | 80 | 999.4 |
| 20260904093006 | 60 | 4 | 9.6 | 18.2 | 0.00 | 0.28 | 0.01 | 80 | 999.6 |
| 20260904091507 | 60 | 242 | 7.0 | 14.8 | 0.00 | 0.28 | 0.01 | 82 | 999.7 |
| 20260904090005 | 60 | 176 | 8.7 | 17.4 | 0.00 | 0.28 | 0.01 | 82 | 999.8 |
| 20260904084505 | 60 | 231 | 7.8 | 16.5 | 0.00 | 0.28 | 0.01 | 79 | 999.9 |
| 20260904083002 | 60 | 242 | 7.8 | 16.5 | 0.00 | 0.28 | 0.01 | 81 | 999.8 |
| 20260904081504 | 59 | 247 | 7.0 | 10.4 | 0.00 | 0.28 | 0.01 | 83 | 999.8 |
| 20260904080105 | 59 | 235 | 7.8 | 14.8 | 0.00 | 0.28 | 0.01 | 82 | 999.8 |
| 20260904074559 | 59 | 244 | 8.7 | 20.0 | 0.00 | 0.28 | 0.01 | 78 | 999.9 |
| 20260904073059 | 60 | 250 | 5.2 | 16.5 | 0.00 | 0.28 | 0.01 | 78 | 1000.2 |
| 20260904071558 | 60 | 227 | 7.8 | 13.9 | 0.00 | 0.28 | 0.01 | 77 | 1000.1 |
| 20260904070055 | 60 | 236 | 7.8 | 20.9 | 0.00 | 0.28 | 0.01 | 77 | 1000.1 |
| 20260904064556 | 59 | 226 | 6.1 | 16.5 | 0.00 | 0.28 | 0.01 | 80 | 1000.3 |
| 20260904063050 | 59 | 208 | 7.8 | 14.8 | 0.00 | 0.28 | 0.01 | 81 | 1000.4 |
| 20260904061552 | 59 | 182 | 7.0 | 16.5 | 0.00 | 0.28 | 0.01 | 80 | 1000.3 |
| 20260904060048 | 59 | 4 | 7.0 | 15.6 | 0.00 | 0.28 | 0.01 | 82 | 1000.7 |
| 20260904054546 | 59 | 247 | 4.3 | 14.8 | 0.00 | 0.28 | 0.01 | 82 | 1000.8 |
| 20260904053045 | 59 | 4 | 6.1 | 16.5 | 0.00 | 0.28 | 0.01 | 83 | 1000.9 |
| 20260904051544 | 59 | 4 | 8.7 | 16.5 | 0.00 | 0.28 | 0.01 | 82 | 1000.9 |
| 20260904050041 | 58 | 214 | 7.8 | 20.9 | 0.00 | 0.28 | 0.01 | 81 | 1000.9 |
| 20260904044551 | 58 | 4 | 9.6 | 20.0 | 0.00 | 0.28 | 0.01 | 81 | 1000.9 |
| 20260904043058 | 58 | 216 | 7.0 | 15.6 | 0.00 | 0.28 | 0.01 | 82 | 1000.9 |
| 20260904041535 | 58 | 244 | 6.1 | 21.7 | 0.00 | 0.28 | 0.01 | 82 | 1001.0 |
| 20260904040033 | 58 | 267 | 8.7 | 17.4 | 0.00 | 0.28 | 0.01 | 83 | 1000.9 |
| 20260904034532 | 58 | 235 | 8.7 | 19.1 | 0.00 | 0.28 | 0.01 | 82 | 1000.9 |
| 20260904033030 | 58 | 257 | 8.7 | 20.9 | 0.00 | 0.28 | 0.01 | 84 | 1001.1 |
| 20260904031528 | 58 | 246 | 6.1 | 15.6 | 0.00 | 0.28 | 0.01 | 85 | 1001.2 |
| 20260904030027 | 58 | 213 | 7.8 | 19.1 | 0.00 | 0.28 | 0.01 | 85 | 1001.4 |
| 20260904024526 | 58 | 4 | 7.0 | 18.2 | 0.00 | 0.28 | 0.01 | 86 | 1001.4 |
| 20260904023025 | 58 | 257 | 9.6 | 16.5 | 0.00 | 0.28 | 0.01 | 86 | 1001.3 |
| 20260904021525 | 58 | 213 | 7.8 | 20.9 | 0.00 | 0.28 | 0.01 | 86 | 1001.5 |
| 20260904020021 | 58 | 259 | 9.6 | 18.2 | 0.00 | 0.28 | 0.01 | 86 | 1001.6 |
| 20260904014520 | 58 | 223 | 8.7 | 19.1 | 0.00 | 0.28 | 0.01 | 88 | 1001.7 |
| 20260904013019 | 58 | 222 | 7.8 | 17.4 | 0.00 | 0.28 | 0.01 | 89 | 1001.8 |
| 20260904011518 | 58 | 271 | 7.0 | 21.7 | 0.00 | 0.28 | 0.01 | 89 | 1001.9 |
| 20260904010017 | 58 | 298 | 8.7 | 15.6 | 0.00 | 0.28 | 0.01 | 90 | 1001.7 |
| 20260904004514 | 57 | 235 | 10.4 | 18.2 | 0.00 | 0.28 | 0.01 | 91 | 1002.0 |
| 20260904003011 | 58 | 220 | 8.7 | 18.2 | 0.00 | 0.28 | 0.01 | 93 | 1002.3 |
| 20260904001511 | 58 | 4 | 7.8 | 20.0 | 0.01 | 0.28 | 0.01 | 94 | 1002.5 |
| 20260904000009 | 58 | 4 | 6.1 | 13.9 | 0.01 | 0.28 | 0.01 | 94 | 1002.4 |
| 20260903234520 | 57 | 4 | 5.2 | 15.6 | 0.01 | 0.28 | 0.01 | 94 | 1002.4 |
| 20260903233008 | 58 | 207 | 6.1 | 14.8 | 0.01 | 0.28 | 0.01 | 94 | 1002.6 |
| 20260903231506 | 58 | 213 | 8.7 | 16.5 | 0.00 | 0.28 | 0.00 | 94 | 1002.6 |
| 20260903230009 | 58 | 246 | 7.8 | 19.1 | 0.00 | 0.28 | 0.00 | 94 | 1002.6 |
| 20260903224508 | 58 | 4 | 7.8 | 18.2 | 0.01 | 0.28 | 0.00 | 94 | 1002.5 |
| 20260903223101 | 58 | 4 | 7.8 | 14.8 | 0.03 | 0.28 | 0.00 | 94 | 1002.6 |
| 20260903221601 | 58 | 247 | 9.6 | 20.0 | 0.08 | 0.28 | 0.00 | 94 | 1002.6 |
| 20260903220120 | 59 | 223 | 3.5 | 12.2 | 0.13 | 0.28 | 0.00 | 95 | 1002.6 |
| 20260903214554 | 59 | 234 | 5.2 | 10.4 | 0.13 | 0.27 | 0.27 | 95 | 1002.8 |
| 20260903213054 | 58 | 219 | 2.6 | 6.1 | 0.11 | 0.24 | 0.24 | 94 | 1002.8 |
| 20260903211556 | 58 | 96 | 0.0 | 2.6 | 0.06 | 0.20 | 0.20 | 94 | 1002.9 |
| 20260903210101 | 58 | 66 | 0.9 | 2.6 | 0.01 | 0.14 | 0.14 | 94 | 1002.8 |
| 20260903204551 | 58 | 89 | 0.9 | 3.5 | 0.00 | 0.13 | 0.13 | 94 | 1003.0 |
| 20260903203049 | 58 | 107 | 0.9 | 2.6 | 0.00 | 0.13 | 0.13 | 94 | 1003.2 |
| 20260903201549 | 58 | 63 | 0.0 | 1.7 | 0.00 | 0.13 | 0.13 | 94 | 1003.3 |
| 20260903200048 | 58 | 63 | 0.0 | 1.7 | 0.01 | 0.13 | 0.13 | 94 | 1003.4 |
| 20260903194547 | 58 | 53 | 0.9 | 2.6 | 0.02 | 0.13 | 0.13 | 94 | 1003.4 |
| 20260903193047 | 58 | 60 | 0.0 | 1.7 | 0.02 | 0.13 | 0.13 | 94 | 1003.5 |
| 20260903191552 | 58 | 75 | 0.9 | 3.5 | 0.02 | 0.13 | 0.13 | 93 | 1003.6 |
| 20260903190044 | 59 | 50 | 0.0 | 2.6 | 0.02 | 0.13 | 0.13 | 93 | 1003.7 |
| 20260903184552 | 59 | 35 | 0.0 | 0.9 | 0.02 | 0.12 | 0.12 | 93 | 1003.8 |
| 20260903183045 | 59 | 42 | 0.0 | 1.7 | 0.02 | 0.12 | 0.12 | 93 | 1003.8 |
| 20260903181542 | 59 | 36 | 0.0 | 2.6 | 0.02 | 0.11 | 0.11 | 93 | 1003.9 |
| 20260903180049 | 59 | 9 | 0.9 | 2.6 | 0.02 | 0.11 | 0.11 | 93 | 1004.0 |
| 20260903174541 | 59 | 15 | 0.9 | 2.6 | 0.01 | 0.10 | 0.10 | 93 | 1004.0 |
| 20260903173040 | 59 | 33 | 0.9 | 2.6 | 0.01 | 0.10 | 0.10 | 92 | 1004.1 |
| 20260903171540 | 59 | 38 | 0.0 | 3.5 | 0.00 | 0.09 | 0.09 | 92 | 1004.0 |
| 20260903170039 | 59 | 61 | 0.9 | 2.6 | 0.00 | 0.09 | 0.09 | 92 | 1004.0 |
| 20260903164538 | 59 | 20 | 0.9 | 3.5 | 0.00 | 0.09 | 0.09 | 92 | 1004.1 |
| 20260903163041 | 59 | 79 | 0.0 | 1.7 | 0.00 | 0.09 | 0.09 | 92 | 1004.2 |
| 20260903161542 | 59 | 121 | 0.9 | 2.6 | 0.01 | 0.09 | 0.09 | 92 | 1004.3 |
| 20260903160033 | 59 | 99 | 0.9 | 3.5 | 0.02 | 0.09 | 0.09 | 92 | 1004.4 |
| 20260903154531 | 59 | 123 | 0.9 | 3.5 | 0.05 | 0.09 | 0.09 | 93 | 1004.8 |
| 20260903153031 | 59 | 148 | 0.0 | 2.6 | 0.06 | 0.09 | 0.09 | 92 | 1004.8 |
| 20260903151529 | 59 | 104 | 1.7 | 5.2 | 0.07 | 0.09 | 0.09 | 92 | 1005.0 |
| 20260903150031 | 59 | 111 | 0.0 | 2.6 | 0.07 | 0.07 | 0.07 | 92 | 1005.1 |
| 20260903144527 | 60 | 109 | 1.7 | 2.6 | 0.05 | 0.05 | 0.05 | 91 | 1005.2 |
| 20260903143046 | 59 | 141 | 3.5 | 7.0 | 0.03 | 0.03 | 0.03 | 91 | 1005.3 |
| 20260903141523 | 60 | 131 | 2.6 | 7.0 | 0.02 | 0.02 | 0.02 | 90 | 1005.5 |
| 20260903140026 | 60 | 130 | 2.6 | 7.0 | 0.00 | 0.00 | 0.00 | 88 | 1005.8 |
| 20260903134523 | 61 | 171 | 2.6 | 7.0 | 0.00 | 0.00 | 0.00 | 84 | 1006.0 |
| 20260903133020 | 61 | 177 | 2.6 | 7.8 | 0.00 | 0.00 | 0.00 | 81 | 1006.1 |
| 20260903131517 | 61 | 194 | 4.3 | 8.7 | 0.00 | 0.00 | 0.00 | 81 | 1006.2 |
| 20260903130016 | 61 | 190 | 4.3 | 8.7 | 0.00 | 0.00 | 0.00 | 80 | 1006.2 |
| 20260903124515 | 61 | 81 | 3.5 | 7.8 | 0.00 | 0.00 | 0.00 | 79 | 1006.3 |
| 20260903123015 | 61 | 188 | 6.1 | 11.3 | 0.00 | 0.00 | 0.00 | 78 | 1006.5 |
| 20260903121514 | 61 | 202 | 3.5 | 8.7 | 0.00 | 0.00 | 0.00 | 78 | 1006.5 |
| 20260903120010 | 61 | 150 | 3.5 | 7.0 | 0.00 | 0.00 | 0.00 | 78 | 1006.8 |
| 20260903114507 | 61 | 146 | 2.6 | 9.6 | 0.00 | 0.00 | 0.00 | 79 | 1007.2 |
| 20260903113010 | 61 | 194 | 2.6 | 7.0 | 0.00 | 0.00 | 0.00 | 79 | 1007.5 |
| 20260903111505 | 61 | 195 | 2.6 | 7.0 | 0.00 | 0.00 | 0.00 | 80 | 1007.7 |
| 20260903110002 | 60 | 191 | 3.5 | 8.7 | 0.00 | 0.00 | 0.00 | 79 | 1007.8 |
| 20260903104502 | 60 | 184 | 3.5 | 6.1 | 0.00 | 0.00 | 0.00 | 77 | 1008.0 |